RH
91 91 90 91 90 88 90 94 92 87 87 94 98 93 94 93 92 96 80 60 64 56 45 52 47 44 49 54 45 36 57 54 44 39 32 21 23 20 19 24 22 20 18 20 18
92 92 89 91 91 90 91 91 92 90 86 84 89 84 85 90 87 80 74 71 74 68 63 48 42 36 46 55 51 51 61 50 32 28 28 23 23 24 27 28 26 23 18 15 17
93 93 91 90 89 91 92 94 93 93 85 90 80 78 86 83 80 64 65 72 77 82 75 58 46 44 60 48 51 50 61 41 30 26 24 26 29 24 29 35 29 27 27 25 22
92 91 92 91 89 92 92 93 93 94 94 88 88 78 75 80 75 64 64 66 72 76 74 62 49 54 68 62 44 53 42 39 36 29 28 31 28 31 29 31 27 26 26 26 25
92 92 93 93 92 94 92 93 92 91 94 93 88 84 83 71 58 55 53 49 55 71 71 60 57 48 62 51 48 51 44 35 31 31 30 29 35 35 32 28 26 26 26 27 25
97 93 94 92 93 94 92 88 94 93 95 89 90 86 83 77 45 47 54 53 49 50 62 62 56 42 43 48 55 46 45 46 37 31 30 34 34 34 32 27 27 26 25 21 22
97 94 91 90 87 92 96 94 92 93 94 95 93 92 70 59 41 42 47 50 48 43 42 58 57 62 41 47 42 43 55 46 44 35 33 32 39 38 30 27 28 27 19 23 25
91 95 89 87 87 86 88 84 89 88 81 91 81 79 78 57 54 46 45 45 45 42 41 41 44 54 60 50 61 65 56 76 47 39 35 36 49 35 28 28 28 20 17 28 29
81 90 93 83 86 84 84 75 72 73 90 86 83 73 68 52 56 50 46 44 40 38 40 39 41 59 61 71 87 75 78 72 63 40 37 38 46 35 30 27 26 21 22 28 32
81 84 91 83 85 84 85 82 72 77 83 87 70 72 60 52 48 50 47 45 42 38 43 48 56 75 78 80 91 77 84 58 67 48 41 42 40 36 30 26 25 23 21 29 33
80 74 88 80 81 84 94 89 87 93 95 75 66 51 43 44 47 46 46 44 45 49 64 54 76 86 77 70 66 61 58 67 46 43 43 41 39 37 31 30 31 28 23 30 36
78 76 85 78 80 82 93 83 72 83 94 82 64 59 46 49 52 47 44 54 59 73 57 69 84 59 54 57 64 62 74 76 51 41 42 38 40 33 32 29 28 28 25 32 40
83 76 84 76 84 86 93 84 79 83 99 90 79 70 59 52 59 51 47 53 59 68 64 76 65 56 51 54 64 63 67 78 71 46 49 40 46 39 30 27 28 28 24 32 37
87 80 84 83 86 77 82 78 83 87 100 92 93 81 67 76 85 48 44 51 57 63 58 64 51 52 59 59 55 67 54 64 74 82 73 44 66 43 34 33 32 29 27 35 36
92 85 83 72 80 74 92 87 95 90 98 80 90 74 68 89 68 66 54 66 66 58 56 78 67 58 64 76 54 65 55 67 70 81 80 61 57 47 31 38 33 29 28 35 36
93 96 81 86 83 92 85 99 84 99 94 89 87 93 92 87 83 70 64 61 54 64 58 71 56 58 60 55 66 53 68 84 79 76 90 81 58 48 36 32 30 28 33 36 37
95 100 84 91 79 96 89 87 99 99 68 96 97 85 81 93 93 90 81 77 80 94 86 92 87 66 75 86 61 66 88 96 100 99 92 46 60 44 24 24 24 27 35 37 40
95 99 97 88 90 89 83 95 99 57 75 90 94 94 100 92 96 94 95 76 62 74 85 86 84 87 79 86 75 81 92 100 97 98 57 38 54 41 24 23 27 29 34 38 42
97 100 100 90 92 86 89 99 79 66 87 95 97 100 97 94 94 95 81 78 61 58 98 97 95 80 69 63 74 80 99 84 83 40 50 49 34 28 29 27 30 34 37 41 42
99 100 100 92 99 96 98 94 76 75 87 92 99 79 74 85 89 74 69 51 57 51 60 93 100 82 82 76 82 86 75 98 83 58 68 55 46 42 37 36 29 37 40 43 43
95 99 90 95 99 98 98 91 72 70 83 95 84 60 53 60 60 52 46 43 48 50 77 93 98 96 81 95 90 97 97 82 66 58 56 58 45 32 32 32 33 34 37 42 44
96 98 98 100 99 97 97 81 86 88 83 88 86 82 40 43 52 54 57 56 39 49 86 90 97 100 99 74 74 77 82 59 56 60 55 49 45 26 30 29 32 31 35 39 42
96 97 100 90 98 97 84 88 92 92 88 90 71 44 30 34 44 41 53 40 53 64 78 94 99 100 99 94 94 92 77 57 56 51 56 48 47 29 34 33 28 33 38 40 44
96 98 100 99 88 87 89 96 97 85 88 81 58 40 36 36 33 53 47 45 43 54 67 86 81 99 98 73 82 89 72 57 59 62 49 42 40 33 37 38 34 34 38 43 45
94 89 80 98 96 94 90 91 96 96 86 74 53 46 38 43 38 40 50 43 46 46 60 83 93 88 61 62 62 64 65 61 60 55 51 38 36 32 36 39 37 36 40 44 46
96 83 87 85 71 81 90 92 95 91 93 76 70 61 60 44 38 44 43 48 48 51 47 52 76 65 49 43 50 63 60 58 54 48 47 46 43 27 27 32 36 39 40 42 44
94 74 70 69 81 88 84 86 87 88 85 79 66 58 67 41 34 28 32 37 43 54 62 62 72 64 58 43 45 54 48 54 54 49 48 54 41 30 30 30 35 37 39 42 44
Wind_Speed
7 8 8 9 10 9 8 8 8 6 4 4 6 9 10 8 8 9 12 9 4 6 8 12 12 12 16 13 14 5 5 11 14 14 15 6 4 6 3 4 7 8 7 8 10
8 8 8 9 8 8 8 7 7 7 6 5 4 5 6 7 9 18 18 15 13 10 8 10 11 11 11 13 9 11 8 14 11 13 12 7 5 4 5 7 8 6 10 6 7
10 9 8 9 9 8 7 7 7 7 7 6 5 6 5 2 6 8 19 25 22 11 11 13 15 11 11 16 17 17 17 12 16 16 14 6 8 6 8 7 8 8 9 7 5
11 10 9 8 9 8 7 7 7 7 7 5 5 5 6 6 7 4 2 4 14 16 15 15 11 11 7 16 18 19 20 18 17 17 4 5 6 12 11 8 8 10 8 8 8
13 12 10 9 9 9 7 7 6 7 7 6 5 5 5 8 13 2 4 5 4 12 18 15 14 12 13 9 15 21 17 20 16 16 16 7 9 13 13 9 12 11 11 11 8
14 13 12 11 10 9 8 6 6 8 8 8 7 7 6 14 11 17 8 6 4 4 16 16 12 12 15 16 16 9 19 18 19 17 13 15 11 10 11 10 12 13 9 7 4
15 14 15 13 11 9 8 6 6 8 9 8 8 9 11 14 5 9 18 18 14 12 7 18 20 14 7 15 13 15 16 15 22 19 15 14 18 17 13 13 14 14 9 4 5
16 16 15 16 13 11 10 6 7 8 10 8 7 10 7 13 24 13 7 10 15 16 15 16 10 11 14 7 10 8 11 12 19 13 18 10 16 12 15 18 16 9 3 7 6
16 16 14 15 15 13 12 8 7 9 10 7 6 10 8 5 19 19 20 15 11 11 10 15 13 6 11 7 6 10 12 22 15 18 15 17 17 12 19 13 7 6 8 9 8
16 16 15 14 15 12 10 9 8 10 8 6 11 3 8 11 11 17 21 23 14 8 8 9 5 7 7 11 16 12 16 14 18 17 18 21 15 12 14 9 10 8 8 9 9
15 14 15 13 14 11 10 4 1 2 7 9 8 9 2 9 2 9 16 15 14 12 12 11 9 17 23 22 18 15 17 16 17 17 21 20 19 15 13 11 10 8 6 10 10
14 13 13 12 12 10 10 3 4 3 6 17 17 19 23 7 7 11 15 13 15 16 14 10 21 25 14 17 18 21 18 17 15 20 20 19 17 16 10 14 13 9 9 10 11
14 13 13 11 10 10 14 13 7 4 6 6 20 16 14 13 13 12 17 17 15 17 17 19 20 16 18 18 20 22 23 16 15 15 9 8 12 10 12 15 9 11 9 15 15
15 13 12 11 5 12 16 11 16 6 5 5 6 6 13 6 7 17 17 17 11 18 17 15 18 20 19 23 19 22 23 22 19 17 11 11 4 15 21 16 10 8 6 15 14
16 15 16 20 8 7 5 6 5 4 5 7 6 5 5 11 4 10 23 14 18 15 9 10 11 18 22 21 20 20 17 22 27 11 4 6 5 9 10 19 9 9 10 14 14
18 18 19 17 13 6 10 12 7 2 7 5 5 7 7 9 6 6 18 19 13 16 14 13 9 12 16 21 20 22 15 20 18 11 8 13 9 6 6 13 13 9 10 14 14
20 19 26 16 6 19 17 5 2 5 2 4 4 6 13 9 10 6 16 20 11 6 13 7 19 8 4 12 20 22 14 8 7 6 4 16 8 6 4 8 14 14 13 14 13
19 17 29 16 17 26 17 2 7 7 6 3 3 8 7 7 7 12 7 17 18 10 2 9 8 14 14 11 15 24 22 3 5 5 6 15 6 5 7 8 11 13 15 14 13
17 19 19 25 26 28 4 4 5 3 4 6 5 6 6 7 7 13 13 12 14 19 7 3 9 5 10 15 16 10 9 17 6 10 6 4 4 4 8 6 10 13 16 15 14
15 11 9 28 31 18 3 8 6 4 5 5 9 13 9 10 8 11 13 10 18 18 15 3 6 6 12 8 9 7 8 10 4 7 7 6 8 5 10 9 8 13 15 14 13
10 3 13 30 25 4 5 7 7 10 8 7 9 10 12 10 13 12 9 11 13 12 13 5 3 1 1 8 13 8 6 9 4 5 5 5 1 10 9 12 11 11 15 16 14
5 3 22 33 5 2 4 5 3 6 16 12 10 15 11 11 13 10 12 6 15 14 10 9 4 4 6 4 12 10 8 11 3 2 1 4 2 6 9 8 9 9 16 15 13
5 3 21 19 6 5 6 6 8 3 6 9 9 13 7 6 8 13 12 7 19 13 11 12 5 2 5 8 1 4 7 5 5 3 3 3 3 7 8 8 5 9 12 13 13
3 4 3 3 2 6 9 7 6 14 17 15 13 16 9 10 10 6 9 6 14 14 13 7 6 6 5 6 11 6 7 6 5 1 2 2 6 6 7 9 7 8 10 13 13
3 4 5 5 7 11 5 5 7 6 11 15 7 17 10 8 9 7 11 6 8 9 11 4 4 13 10 18 17 14 9 8 9 7 1 3 7 9 10 10 9 8 9 13 12
4 3 3 3 8 15 15 9 13 6 4 9 14 9 14 9 8 11 12 10 8 8 15 12 6 12 10 6 12 13 13 12 10 7 7 9 5 7 8 9 9 9 9 11 12
4 2 1 4 8 8 6 10 11 11 11 17 13 15 12 12 7 12 10 11 7 10 11 6 4 5 4 4 5 4 8 14 9 8 8 10 7 4 6 7 9 10 10 9 9
Wind_Direction
284 292 297 297 300 305 312 316 312 301 304 258 204 233 244 253 255 244 251 242 319 305 324 299 282 260 251 245 258 262 243 237 233 247 264 237 162 254 136 268 273 278 289 131 131
273 282 288 295 301 304 306 309 310 297 283 269 257 232 240 245 258 251 247 254 264 267 281 276 267 238 230 220 229 231 224 238 239 248 267 277 180 238 306 281 284 285 256 164 180
265 270 282 289 294 301 307 308 304 300 290 275 262 243 235 199 291 252 245 242 243 246 263 272 283 288 269 226 214 223 234 250 239 252 268 271 313 303 277 268 272 270 321 334 28
260 263 272 284 288 292 299 310 307 303 299 268 260 239 212 180 242 81 161 229 238 239 244 259 250 250 253 240 229 229 231 231 260 274 250 241 285 280 273 277 288 301 304 292 290
261 261 263 269 276 280 285 293 301 305 294 277 256 237 167 212 239 192 96 50 225 208 222 233 240 242 242 244 239 242 244 246 237 252 268 225 232 264 270 275 283 282 265 253 245
262 261 258 257 261 263 270 278 288 287 290 275 259 235 241 238 244 239 236 225 290 268 205 242 250 244 270 249 258 264 244 262 266 250 235 263 251 245 250 246 258 267 268 277 272
259 261 259 257 254 256 264 271 283 286 281 278 263 220 241 231 246 246 221 245 256 268 278 207 245 279 270 262 298 257 267 247 244 245 246 226 246 241 256 251 252 260 259 84 66
253 259 259 252 253 258 259 254 261 276 270 270 262 228 249 247 248 246 252 244 256 252 254 271 284 251 274 333 312 280 233 250 239 249 237 227 257 250 251 240 236 231 174 128 112
251 252 255 254 252 253 254 257 279 284 287 249 234 227 262 251 226 226 220 221 222 233 234 239 259 258 262 246 271 242 234 224 243 235 229 223 246 243 257 268 211 247 208 155 131
253 252 249 253 250 249 242 250 278 288 289 223 255 282 248 235 227 222 225 223 239 249 237 218 221 225 214 206 220 222 226 238 220 227 238 234 233 234 276 219 214 232 234 144 143
255 247 242 251 247 244 217 272 267 211 194 199 197 216 110 267 204 198 209 205 222 237 228 206 212 219 212 213 229 249 251 239 239 211 234 233 226 224 230 249 255 217 243 149 120
250 229 239 241 240 235 210 204 234 98 274 219 249 228 246 323 233 214 193 196 201 216 214 219 226 226 226 236 239 240 251 268 243 247 221 238 226 229 225 246 226 217 204 141 121
237 221 231 225 232 224 214 223 253 299 265 195 219 228 229 217 233 217 198 200 201 212 208 216 236 232 238 234 236 239 238 244 254 230 267 239 246 243 232 233 207 223 188 140 142
228 212 205 192 200 216 217 237 242 225 269 203 212 238 220 146 249 240 207 203 224 223 215 235 240 239 229 233 230 234 238 233 250 255 198 202 254 217 230 225 224 189 204 142 142
223 206 195 189 137 175 157 214 170 114 282 118 163 167 202 186 86 218 215 229 224 214 194 219 214 223 230 235 238 239 243 220 240 238 171 246 220 249 245 209 190 193 197 146 141
221 204 192 202 231 157 141 135 103 126 251 162 131 183 179 198 206 292 189 209 222 237 225 247 260 230 224 230 234 250 256 275 241 211 221 202 205 245 201 172 176 183 151 140 139
218 212 190 177 193 170 135 105 122 230 79 184 182 188 213 202 213 195 199 205 204 193 230 230 244 239 318 252 224 230 210 226 218 194 221 191 182 254 55 121 174 166 144 140 139
215 218 191 178 165 154 143 103 228 238 204 118 191 202 218 203 209 199 213 205 214 218 333 223 242 196 192 234 212 207 209 205 166 193 153 164 204 213 146 111 119 138 140 142 148
204 190 166 184 164 155 153 199 228 236 179 181 176 211 214 202 242 198 218 213 210 204 212 262 231 207 202 212 186 184 218 239 265 188 127 185 127 51 111 93 134 142 146 155 157
172 144 170 180 166 154 188 220 231 224 156 205 215 198 203 186 191 198 201 201 224 208 191 189 280 193 196 206 199 208 204 205 232 164 164 181 184 176 162 154 157 152 160 158 156
142 148 175 175 156 180 217 221 254 225 180 211 234 243 245 168 202 194 217 240 193 186 145 174 212 288 252 188 170 185 214 233 111 232 145 130 181 154 161 158 172 166 163 162 163
146 164 159 157 170 184 222 202 205 234 205 233 255 278 230 193 200 194 243 225 167 149 174 177 271 274 244 281 177 176 226 233 226 42 298 113 135 77 102 122 154 178 165 160 157
143 117 163 159 191 200 226 232 206 267 226 201 248 236 241 240 188 205 230 218 141 158 165 161 217 193 341 151 42 212 228 280 351 312 214 66 171 110 108 111 142 151 147 153 147
150 156 137 206 266 215 212 225 220 220 239 226 260 250 235 240 190 186 227 183 168 175 183 186 182 210 256 108 131 175 208 242 205 337 359 59 128 140 137 133 130 138 143 147 152
173 187 162 178 220 231 193 232 210 232 213 201 247 251 221 217 215 214 227 208 183 184 174 229 250 214 243 132 156 169 184 241 207 223 24 237 137 169 166 158 161 153 135 145 161
142 189 159 180 200 212 226 231 238 204 260 216 234 256 236 211 209 196 182 226 175 185 202 220 297 313 88 74 154 172 188 204 218 212 242 271 303 156 169 133 134 160 159 167 170
173 284 40 166 187 197 213 217 219 211 232 251 241 235 277 211 258 216 180 205 180 171 185 183 251 314 51 83 82 349 206 197 209 218 213 223 238 103 97 133 152 161 165 159 157